NOAA 18 (28654 NORAD) Tracking and Keplerian Element Data

This shows tracking and keplerian element data for the satellite.

Feedback or suggestion? Click here.




ElementValue
Catalog28654
NameNOAA 18
Epoch Orbit90219
Epoch Day325.14802006
Epoch Year2022
RAAN35.3437
Inclination98.9345
Eccentricity0.0013443
Argument of Perigee246.7196
Mean Anonmoly113.2561
Mean Motion14.12810016
Decay Rate1.59E-06
L11 28654U 05018A 22325.14802006 .00000159 00000+0 10971-3 0 9999
L22 28654 98.9345 35.3437 0013443 246.7196 113.2561 14.12810016902194



Live tracking and technical data element details for NOAA 18 (NORAD 28654). NOAA 18 can be tracked NOW for your location showing map with azimuth and elevation plus other details from your city location.







IsCatalogInMostPopularTable: catalog: 28654, numindb: 553
Update: records affected: 1



GetName: 28654 NOAA 18

Hit Count: updated at: Mon, 28 Nov 2022 04:29:14 GMT